FREGAT DEB, 45944

Orbit data source: Space-Track

FREGAT DEB, 45944 is space debris in LEO originally from a launch on Mon, 18 Jul 2011 UTC launched from the Tyuratam Missile And Space Complex (TTMTR). Debris objects in space refer to the collection of defunct objects orbiting the Earth. Examples of debris include non-operational satellites, rocket bodies, and fragments generated from explosions, collisions, or faulty payload assembly.

Loading next visibility...
Identifier
45944, 2011-037EZ
Orbit
LEO
Country
Flag of CISCIS
Related business
Manufacturer
Lavochkin
Mission
Spacecraft
Bus & Motor
Unknown
Mass
Unknown
Launch date (UTC)
2011-07-18 (14 years ago)
Launch vehicle
Unknown
Launch site
Tyuratam Missile And Space Complex (TTMTR)
Object type
Payload
Rocket body
Debris
Shape & HBR
Unknown shape, 0.1 m
Radar Cross Section
Small (<0.1 m²)

Expand to show TLE details & history
Last TLE update: 2 days ago

TLE from 2 days ago
0 FREGAT DEB
1 45944U 11037EZ  25305.75417976  .00017968  00000-0  73411-1 0  9997
2 45944  51.2051  97.0414 2254325 211.9643 132.2412  9.68051578183631
Epoch: 2025-11-01T18:06Z
TLE epoch observation values (Epoch: 2025-11-01T18:06:01.131Z)
Latitude
0.00002°
Longitude
144.25698°
Altitude
4,538.693 km
Speed
5.494 km/s
True Right ascension
06h 28m 09s
True Declination
0° 00' 00"
Sunlit
Object was in daylight at epoch
Visualization orbit readout
Latitude
Unknown
Longitude
Unknown
Altitude
Unknown
Speed
Unknown
Apparent Right ascension
Unknown
Apparent Declination
Unknown
Sunlit
N/A
Visualization observer readout
Local Sidereal Time
16:48:00
Azimuth
Unknown
Elevation
Unknown
Doppler factor
Unknown
Orbital elements
Apogee altitude
5,018.597 km
Perigee altitude
825.475 km
Semi-major axis
9,300.173 km
Eccentricity
0.22543
Inclination
51.2051°
RAAN
97.0414°
Arg. of periapsis
211.9643°
True anomaly
148.10724°
Mean anomaly
132.2412°
Eccentric anomaly
140.46337°
Mean motion
2.41995 °/min
Orbital period
148.76 mins
BSTAR
0.073411
Loading maneuver chart data...
Computing Atmospheric mass density...
Loading historical data...
Loading historical data...
Loading historical data...
Loading historical data...
Loading historical data...
Loading historical data...
Loading historical data...

Documentation

Showing up to 5 results
|